TimeEET,TemperatureF,Dew PointF,Humidity,Sea Level PressureIn,VisibilityMPH,Wind Direction,Wind SpeedMPH,Gust SpeedMPH,PrecipitationIn,Events,Conditions,WindDirDegrees,DateUTC
12:00 AM,57.2,46.4,67,30.04,-9999.0,NNE,4.6,-,N/A,,Clear,30,2012-11-29 22:00:00
1:00 AM,57.2,46.4,67,30.04,-9999.0,East,5.8,-,N/A,,Clear,90,2012-11-29 23:00:00
2:00 AM,54,42,54,30.05,6,ESE,5.8,,,,,110,2012-11-30 00:00:00
2:00 AM,53.6,42.8,67,30.04,-9999.0,ESE,5.8,-,N/A,,Clear,110,2012-11-30 00:00:00
3:00 AM,51.8,42.8,71,30.04,-9999.0,SSE,6.9,-,N/A,,Clear,150,2012-11-30 01:00:00
4:00 AM,51.8,42.8,71,30.01,-9999.0,North,4.6,-,N/A,,Clear,350,2012-11-30 02:00:00
5:00 AM,53.6,41.0,62,30.01,-9999.0,ESE,4.6,-,N/A,,Clear,120,2012-11-30 03:00:00
6:00 AM,51.8,41.0,67,30.04,-9999.0,East,4.6,-,N/A,,Clear,90,2012-11-30 04:00:00
7:00 AM,53.6,41.0,62,30.04,-9999.0,ENE,4.6,-,N/A,,Clear,60,2012-11-30 05:00:00
8:00 AM,56,40,44,30.06,6,SSW,5.8,,,,,200,2012-11-30 06:00:00
8:00 AM,55.4,41.0,58,30.04,-9999.0,SSW,5.8,-,N/A,,Clear,200,2012-11-30 06:00:00
9:00 AM,66.2,41.0,40,30.06,-9999.0,South,5.8,-,N/A,,Clear,180,2012-11-30 07:00:00
10:00 AM,73.4,42.8,33,30.09,-9999.0,East,5.8,-,N/A,,Clear,90,2012-11-30 08:00:00
11:00 AM,75.2,42.8,31,30.06,-9999.0,East,6.9,-,N/A,,Clear,80,2012-11-30 09:00:00
12:00 PM,78.8,42.8,28,30.06,-9999.0,SSW,5.8,-,N/A,,Clear,200,2012-11-30 10:00:00
1:00 PM,80.6,42.8,26,30.04,-9999.0,South,8.1,-,N/A,,Clear,180,2012-11-30 11:00:00
2:00 PM,83,41,13,30.00,6,SW,9.2,,,,,230,2012-11-30 12:00:00
2:00 PM,82.4,41.0,23,30.01,-9999.0,SW,9.2,-,N/A,,Clear,230,2012-11-30 12:00:00
3:00 PM,82.4,39.2,21,30.01,-9999.0,SW,5.8,-,N/A,,Clear,230,2012-11-30 13:00:00
5:00 PM,73.4,44.6,36,30.04,-9999.0,NE,9.2,-,N/A,,Clear,50,2012-11-30 15:00:00
6:00 PM,71.6,44.6,38,30.04,-9999.0,NE,8.1,-,N/A,,Clear,50,2012-11-30 16:00:00
7:00 PM,68.0,46.4,46,30.04,-9999.0,NE,6.9,-,N/A,,Clear,50,2012-11-30 17:00:00
8:00 PM,66,48,42,30.06,6,NE,5.8,,,,,50,2012-11-30 18:00:00
8:00 PM,66.2,48.2,52,30.04,-9999.0,NE,5.8,-,N/A,,Clear,50,2012-11-30 18:00:00
9:00 PM,64.4,48.2,56,30.06,-9999.0,ENE,5.8,-,N/A,,Clear,70,2012-11-30 19:00:00
10:00 PM,62.6,48.2,59,30.06,-9999.0,East,4.6,-,N/A,,Clear,100,2012-11-30 20:00:00
11:00 PM,60.8,48.2,63,30.06,-9999.0,ENE,4.6,-,N/A,,Clear,70,2012-11-30 21:00:00